This is the latest recevied weather packets stored in our database for station/object CE3MXM-12. If no packets are shown the sender has not sent any weather packets the latest 10 day(s).
| Time | Temp. | Humidity | Pressure | Rain* | Wind** | Luminosity | Snow |
|---|---|---|---|---|---|---|---|
| 1777587795 | 10.56° C | 71% | 1013.5 hPa | - | - | - | - |
| 1777587495 | 10.56° C | 72% | 1013.4 hPa | - | - | - | - |
| 1777587195 | 10.56° C | 73% | 1013.5 hPa | - | - | - | - |
| 1777586895 | 10.56° C | 73% | 1013.3 hPa | - | - | - | - |
| 1777586595 | 10.56° C | 73% | 1013.4 hPa | - | - | - | - |
| 1777586294 | 11.11° C | 72% | 1013.3 hPa | - | - | - | - |
| 1777585994 | 11.11° C | 72% | 1013.2 hPa | - | - | - | - |
| 1777585694 | 11.67° C | 72% | 1013.1 hPa | - | - | - | - |
| 1777585394 | 11.67° C | 71% | 1013.2 hPa | - | - | - | - |
| 1777585095 | 11.67° C | 71% | 1013.1 hPa | - | - | - | - |
| 1777584796 | 12.22° C | 71% | 1012.8 hPa | - | - | - | - |
| 1777584494 | 12.22° C | 70% | 1012.7 hPa | - | - | - | - |
| 1777584194 | 12.78° C | 70% | 1012.7 hPa | - | - | - | - |
| 1777583894 | 13.33° C | 69% | 1012.7 hPa | - | - | - | - |
| 1777583594 | 13.33° C | 69% | 1012.7 hPa | - | - | - | - |
| 1777583294 | 13.89° C | 68% | 1012.6 hPa | - | - | - | - |
| 1777582993 | 13.89° C | 68% | 1012.7 hPa | - | - | - | - |
| 1777582693 | 14.44° C | 67% | 1012.6 hPa | - | - | - | - |
| 1777582393 | 14.44° C | 66% | 1012.8 hPa | - | - | - | - |
| 1777582093 | 15° C | 66% | 1012.6 hPa | - | - | - | - |
| 1777581794 | 15.56° C | 67% | 1012.9 hPa | - | - | - | - |
| 1777581494 | 15.56° C | 66% | 1012.8 hPa | - | - | - | - |
| 1777581193 | 16.11° C | 65% | 1012.5 hPa | - | - | - | - |
| 1777580893 | 16.11° C | 65% | 1012.7 hPa | - | - | - | - |
| 1777580593 | 16.67° C | 64% | 1012.7 hPa | - | - | - | - |
* Rain since midnight (hover to see other rain measurements)
** Current wind speed in m/s (hover to see current wind gust speed)